Meteo Giornale » Osservazioni meteo Olanda » Volkel

ore: 17:55 - Osservazioni Meteo Volkel
Lat. 51° 39' N Lon. 5° 42' E Alt. 22 metri s.l.m.

coperto

21 °C

Coperto

Temp. 24 Ore

14 °C

22 °C

Ovest/Nord-Ovest

13 Km/h

Dew point 11 °C

Umidità 52 %

Visibilità  10 Km

Il sole sorge alle ore 06:49

Il sole tramonta alle ore 20:24

Data e Ora Cielo e Fenomeni T °C DP °C Um. % Pres. hPa Vis. km Vento km/h
Oggi h: 17:55 coperto Coperto 21 11 52 1020 10 O/NO 13
Oggi h: 17:25 coperto Coperto 22 11 49 1020 10 O 14.8
Oggi h: 16:55 coperto Coperto 21 11 52 1020 10 O 13
Oggi h: 16:25 molto_nuvoloso Molto Nuvoloso 22 11 49 1019 10 O/NO 13
Oggi h: 15:55 poco_nuvoloso Poco Nuvoloso 21 10 49 1020 10 O 16.7
Oggi h: 15:25 molto_nuvoloso Molto Nuvoloso 21 11 52 1020 10 O/NO 13
Oggi h: 14:55 molto_nuvoloso Molto Nuvoloso 21 11 52 1020 10 O/NO 16.7
Oggi h: 14:25 molto_nuvoloso Molto Nuvoloso 22 12 53 1019 10 O 16.7
Oggi h: 13:55 poco_nuvoloso Poco Nuvoloso 21 12 56 1019 10 O 16.7
Oggi h: 13:25 sereno Sereno 21 13 60 1019 10 O 20.3
Oggi h: 12:55 molto_nuvoloso Molto Nuvoloso 19 14 72 1019 10 O 16.7
Oggi h: 12:25 coperto Coperto 20 16 77 1020 10 O/SO 14.8
Oggi h: 11:55 foschia Foschia 18 17 93 1019 9 O/SO 11.1
Oggi h: 11:25 foschia Foschia 17 16 93 1019 5 O/SO 14.8
Oggi h: 10:55 foschia Foschia 17 16 93 1019 6 O/SO 13
Oggi h: 10:25 foschia Foschia 17 16 93 1019 6 SO 16.7
Oggi h: 09:55 foschia Foschia 17 16 93 1019 4 SO 16.7
Oggi h: 09:25 coperto_pioggia Pioviggine 16 16 100 1018 4 SO 11.1
Oggi h: 08:55 nuvoloso_piovaschi Pioggia 16 16 100 1018 5 SO 13
Oggi h: 08:25 foschia Foschia 16 15 93 1018 6 O/SO 16.7
Oggi h: 07:55 coperto Coperto 16 15 93 1018 10 SO 9.3
Oggi h: 07:25 coperto_pioggia Pioviggine 16 15 93 1018 8 SO 14.8
Oggi h: 06:55 coperto Coperto 15 15 100 1017 10 SO 14.8
Oggi h: 06:25 foschia Foschia 15 15 100 1017 9 SO 14.8
Oggi h: 05:55 foschia Foschia 15 15 100 1017 8 O/SO 9.3
Oggi h: 05:25 foschia Foschia 15 15 100 1017 8 SO 14.8
Oggi h: 04:55 foschia Foschia 14 13 93 1017 9 SO 11.1
Oggi h: 04:25 coperto Coperto 15 14 93 1017 10 O/SO 11.1
Oggi h: 03:55 coperto Coperto 16 15 93 1017 10 O/SO 13
Oggi h: 03:25 coperto Coperto 16 15 93 1016 10 SO 14.8
Oggi h: 02:55 coperto_pioggia Pioviggine 16 15 93 1016 10 O/SO 18.5
Oggi h: 02:25 coperto Coperto 16 15 93 1016 10 SO 18.5
Oggi h: 01:25 coperto Coperto 15 14 93 1016 10 SO 14.8
Oggi h: 00:55 coperto Coperto 15 13 87 1016 10 SO 14.8
Oggi h: 00:25 poco_nuvoloso Poco Nuvoloso 16 13 82 1016 10 SO 16.7
Ieri h: 23:55 molto_nuvoloso Molto Nuvoloso 16 13 82 1016 10 SO 14.8
Ieri h: 23:25 molto_nuvoloso Molto Nuvoloso 16 13 82 1016 10 SO 13
Ieri h: 22:55 molto_nuvoloso Molto Nuvoloso 16 13 82 1016 10 SO 14.8
Ieri h: 22:25 sereno Sereno 16 13 82 1015 10 SO 11.1
Ieri h: 21:55 sereno Sereno 16 12 77 1015 10 SO 13
Ieri h: 21:25 sereno Sereno 16 13 82 1015 10 O/SO 11.1
Ieri h: 20:55 poco_nuvoloso Poco Nuvoloso 18 13 72 1014 10 O/SO 13
Ieri h: 20:25 sereno Sereno 19 13 68 1014 10 O/SO 14.8
Ieri h: 19:55 molto_nuvoloso Molto Nuvoloso 19 13 68 1013 10 O 14.8
Ieri h: 19:25 coperto Coperto 20 13 64 1013 10 O 18.5
Ieri h: 18:55 sereno Sereno 20 13 64 1012 10 O 22.2